Miscellaneous Local Product
Issued by NWS Hastings, NE

Home | Current Version | Previous Version | Text Only | Print | Product List | Glossary Off
Versions: 1 2 3 4 5 6 7 8 9 10 11 12 13 14 15 16 17 18 19 20 21 22 23 24 25 26 27 28 29 30 31 32 33 34 35 36 37 38 39 40 41 42 43 44 45 46 47 48 49 50

000
AXUS43 KGID 182202
MISGRI

GID CWA HOURLY WEATHER ROUNDUP
NATIONAL WEATHER SERVICE HASTINGS NE
400 PM CST THU DEC 18 2014

NOTE: "FAIR" INDICATES FEW OR NO CLOUDS BELOW 12,000 FEET WITH NO
SIGNIFICANT WEATHER AND/OR OBSTRUCTIONS TO VISIBILITY.

...SOUTH CENTRAL NEBRASKA...

CITY           SKY/WX    TMP DP  RH WIND       PRES   REMARKS
GRAND ISLAND   CLOUDY    29  25  85 CALM      30.16R
HASTINGS       CLOUDY    30  24  78 SW3       30.14R
KEARNEY        CLOUDY    28  25  86 SW8       30.13R WCI  20
ORD            NOT AVBL
YORK           CLOUDY    28  25  86 S3        30.16S
AURORA         CLOUDY    30  26  86 CALM      30.15S FOG
LEXINGTON      CLOUDY    30  27  87 W5        30.11S WCI  25
HOLDREGE       CLOUDY    29  25  83 W9        30.12R WCI  21
HEBRON         CLOUDY    31  25  80 CALM      30.18S

...NEBRASKA PANHANDLE...

CITY           SKY/WX    TMP DP  RH WIND       PRES   REMARKS
CHADRON        SUNNY     36  24  62 SW6       30.01S WCI  31
ALLIANCE       SUNNY     30  25  81 W5        30.00S WCI  25
SCOTTSBLUFF    MOSUNNY   19  16  88 CALM      30.03R
SIDNEY         MOSUNNY   39  26  59 MISG      30.03R

...WESTERN AND NORTH CENTRAL NEBRASKA...

CITY           SKY/WX    TMP DP  RH WIND       PRES   REMARKS
VALENTINE      CLEAR     26  22  84 S5        30.04S WCI  20
AINSWORTH      CLOUDY    27  25  92 SW6       30.05S FOG     WCI  20
ONEILL         CLOUDY    28  26  92 CALM      30.12R
BROKEN BOW     CLOUDY    30  27  88 SW7       30.08S WCI  23
IMPERIAL       PTSUNNY   29  25  85 CALM      30.07R
NORTH PLATTE   CLOUDY    28  25  88 W8        30.08R FOG     WCI  20
MCCOOK         CLOUDY    29  26  89 SW3       30.10S

...EASTERN NEBRASKA...

CITY           SKY/WX    TMP DP  RH WIND       PRES   REMARKS
NORFOLK        CLOUDY    29  24  82 SW5       30.16R WCI  24
SO SIOUX CITY  CLOUDY    31  23  72 SE6       30.20R WCI  25
TEKAMAH        CLOUDY    31  25  78 SE6       30.21R HAZE    WCI  25
COLUMBUS       CLOUDY    30  21  69 S5        30.18S WCI  25
ALBION         CLOUDY    29  23  81 S3        30.15R
OMAHA EPPLEY   CLOUDY    31  26  82 SE6       30.22R WCI  25
OFFUTT AFB     CLOUDY    31  26  82 SE2       30.20S
MILLARD        CLOUDY    32  26  78 S5        30.21R WCI  27
LINCOLN        CLOUDY    32  27  81 SW3       30.20S
NEBRASKA CITY  CLOUDY    30  28  90 CALM      30.20R
BEATRICE       CLOUDY    31  28  86 CALM      30.18R
FALLS CITY     CLOUDY    30  26  85 E3        30.21R

...NORTHERN KANSAS...

CITY           SKY/WX    TMP DP  RH WIND       PRES   REMARKS
GOODLAND       SUNNY     42  29  59 NW6       30.05S
HILL CITY      CLOUDY    32  27  81 SW6       30.13S WCI  26
NORTON         CLOUDY    30  25  80 SW5       30.11S WCI  25
PHILLIPSBURG   CLOUDY    36  28  75 CALM      30.15S
SMITH CENTER   CLOUDY    28  27  93 CALM      30.17R
BELOIT         CLOUDY    30  27  86 CALM      30.18R
HAYS           CLOUDY    34  23  64 CALM      30.14S
RUSSELL        CLOUDY    31  28  89 E5        30.14S WCI  26
CONCORDIA      CLOUDY    31  26  82 CALM      30.18R
SALINA         CLOUDY    32  27  81 NW3       30.20R
TOPEKA         CLOUDY    33  30  88 N5        30.21R WCI  29



USA.gov is the U.S. government's official web portal to all federal, state and local government web resources and services.